Location: Godzisko
(49.9648°N, 19.4576°E)
Time: 02:36:03
(UTC+00:00)

Cosmos 158 Rocket - Pass Details

Date: 20 April 2021
Orbit: 699 x 792 km, 74.0° (Epoch: 07 May)

Event Time Altitude Azimuth Distance (km) Brightness Sun altitude
Rises 00:07:05 0° 337° (NNW) 3,138 7.8 -25.7°
Reaches altitude 10° 00:09:28 10° 340° (NNW) 2,202 6.9 -25.5°
Maximum altitude 00:14:25 70° 64° (ENE) 755 4.0 -25.2°
Enters shadow 00:15:21 55° 122° (ESE) 850 4.1 -25.1°
